Atlanta, GA

10:05 AM EDT on September 26, 2016 (GMT -0400)
The Hartsfield Atlanta International

Weather History for KATL - November, 2013

Change the Weather History Date:

Wednesday, November 6, 2013

  Actual Average Record
Temperature  
Mean Temperature 62 °F 57 °F  
Max Temperature 72 °F 67 °F 78 °F (1938)
Min Temperature 51 °F 48 °F 24 °F (1976)
Degree Days  
Heating Degree Days 3 8  
Month to date heating degree days 43 46  
Since 1 July heating degree days 141 175  
Cooling Degree Days 0 1  
Month to date cooling degree days 1 6  
Year to date cooling degree days 1755 1878  
Growing Degree Days 12 (Base 50)    
Moisture  
Dew Point 52 °F    
Average Humidity 77    
Maximum Humidity 96    
Minimum Humidity 57    
Precipitation  
Precipitation 0.01 in 0.12 in 1.25 in (2012)
Month to date precipitation 0.45 0.71  
Year to date precipitation 56.80 42.42  
Snow  
Snow 0.00 in 0.00 in 0.00 in (2001)
Month to date snowfall 0.0 0.0  
Since 1 July snowfall 0.0 0.0  
Since 1 September snowfall 0.0 0.0  
Snow Depth 0.00 in    
Sea Level Pressure  
Sea Level Pressure 30.25 in    
Wind  
Wind Speed 7 mph (ESE)    
Max Wind Speed 15 mph    
Max Gust Speed 18 mph    
Visibility 8 miles    
Events Rain    
T = Trace of Precipitation, MM = Missing Value Source: NWS Daily Summary

Daily Weather History Graph

Daily Weather History Graph

Search for Another Location

Airport or City:

Trip Planner

Search our weather history database for the weather conditions in past years. The results will help you decide how hot, cold, wet, or windy it might be!

Date:

Astronomy

Nov. 06, 2013 Rise Set
Actual Time 7:01 AM EST 5:40 PM EST
Civil Twilight 6:35 AM EST 6:06 PM EST
Nautical Twilight 6:05 AM EST 6:36 PM EST
Astronomical Twilight 5:36 AM EST 7:05 PM EST
Moon 10:11 AM EST (11/6) 8:48 PM EST (11/6)
Length of Visible Light 11h 31m
Length of Day
10h 39m
Waxing Crescent, 13% of the Moon is Illuminated
Nov 6
Waxing Crescent
Nov 10
First Quarter
Nov 17
Full
Nov 25
Last Quarter
Dec 2
New

Hourly Weather History & Observations

Time (EST) Temp. Dew Point Humidity Pressure Visibility Wind Dir Wind Speed Gust Speed Precip Events Conditions
12:25 AM 53.6 °F 46.4 °F 77% 30.33 in 7.0 mi East 12.7 mph - 0.00 in   Light Drizzle
12:52 AM 52.0 °F 48.9 °F 89% 30.34 in 5.0 mi East 11.5 mph - 0.00 in   Light Drizzle
1:16 AM 51.8 °F 48.2 °F 88% 30.33 in 2.0 mi East 10.4 mph - 0.00 in   Light Drizzle
1:50 AM 51.8 °F 48.2 °F 88% 30.32 in 3.0 mi East 11.5 mph - 0.01 in Rain Light Rain
1:52 AM 51.1 °F 48.9 °F 92% 30.32 in 3.0 mi East 10.4 mph - 0.01 in Rain Light Rain
2:52 AM 51.1 °F 50.0 °F 96% 30.30 in 7.0 mi East 9.2 mph - 0.00 in   Overcast
3:52 AM 52.0 °F 50.0 °F 93% 30.28 in 7.0 mi East 11.5 mph - N/A   Overcast
4:52 AM 52.0 °F 50.0 °F 93% 30.28 in 7.0 mi East 11.5 mph - N/A   Overcast
5:52 AM 52.0 °F 50.0 °F 93% 30.28 in 7.0 mi East 8.1 mph - N/A   Overcast
6:52 AM 52.0 °F 50.0 °F 93% 30.29 in 7.0 mi East 10.4 mph - N/A   Overcast
7:52 AM 53.1 °F 50.0 °F 89% 30.31 in 7.0 mi East 8.1 mph - N/A   Overcast
8:36 AM 53.6 °F 50.0 °F 88% 30.31 in 8.0 mi East 10.4 mph - N/A   Overcast
8:52 AM 54.0 °F 50.0 °F 86% 30.31 in 8.0 mi East 11.5 mph - N/A   Overcast
9:52 AM 57.0 °F 51.1 °F 81% 30.30 in 10.0 mi East 13.8 mph - N/A   Overcast
10:52 AM 61.0 °F 52.0 °F 72% 30.30 in 10.0 mi East 10.4 mph - N/A   Mostly Cloudy
11:36 AM 62.6 °F 53.6 °F 72% 30.28 in 10.0 mi ESE 8.1 mph - N/A   Mostly Cloudy
11:52 AM 64.0 °F 54.0 °F 70% 30.27 in 10.0 mi East 9.2 mph - N/A   Mostly Cloudy
12:52 PM 68.0 °F 55.0 °F 63% 30.23 in 10.0 mi East 4.6 mph - N/A   Scattered Clouds
1:52 PM 70.0 °F 55.9 °F 61% 30.20 in 10.0 mi SSE 8.1 mph - N/A   Scattered Clouds
2:52 PM 71.1 °F 55.0 °F 57% 30.18 in 10.0 mi SSE 6.9 mph - N/A   Scattered Clouds
3:52 PM 71.1 °F 55.9 °F 59% 30.17 in 10.0 mi SE 5.8 mph - N/A   Scattered Clouds
4:52 PM 71.1 °F 55.0 °F 57% 30.16 in 10.0 mi SE 5.8 mph - N/A   Partly Cloudy
5:52 PM 66.9 °F 55.0 °F 66% 30.16 in 10.0 mi South 4.6 mph - N/A   Partly Cloudy
6:52 PM 64.9 °F 55.0 °F 70% 30.16 in 10.0 mi SSE 4.6 mph - N/A   Partly Cloudy
7:52 PM 64.9 °F 55.9 °F 73% 30.15 in 10.0 mi SE 4.6 mph - N/A   Scattered Clouds
8:52 PM 63.0 °F 55.9 °F 78% 30.14 in 10.0 mi Calm Calm - N/A   Scattered Clouds
9:52 PM 62.1 °F 55.9 °F 80% 30.14 in 10.0 mi Calm Calm - N/A   Partly Cloudy
10:52 PM 60.1 °F 55.0 °F 83% 30.13 in 10.0 mi Calm Calm - N/A   Mostly Cloudy
11:52 PM 61.0 °F 55.9 °F 83% 30.12 in 10.0 mi Calm Calm - N/A   Mostly Cloudy